Voltar ao catálogo

CZ-6A DEB

AtivoPO
NORAD 60623·DEBRIS·🇨🇳 China

Lançado Aug 6, 2024 de Taiyuan Satellite Launch Center

Loading…

Próximas Passagens (próximas 24 horas)

TLE

AtualizadoSource: Space-Track

Época: Sep 14, 2026, 11:06 UTC

1 60623U 24140Y   26257.46267498  .00001421  00000-0  29969-3 0  9992
2 60623  89.0077 260.9495 0103437 321.1546  38.2260 14.55594815111365

Acompanhe CZ-6A DEB em tempo real com AllMySat

Download on the App Store